カタログに戻る

COSMOS 2499 DEB

運用中PO
NORAD 55727·DEBRIS·🇷🇺 Russia

打ち上げ May 23, 2014 から Plesetsk Cosmodrome

Loading…

次のパス (今後24時間)

TLE

最新Source: Space-Track

元期: Sep 13, 2026, 11:54 UTC

1 55727U 14028AP  26256.49618083 -.00000013  00000-0 -96834-4 0  9991
2 55727  82.2411 173.8721 0185909 193.9220 165.6716 12.79590221170786

AllMySatでCOSMOS 2499 DEBをリアルタイム追跡

Download on the App Store